EW5297 Weather Reports


Display with metric or nautical units.
time (UTC)temp
F
wind
direction
speed
MPH
gust
MPH
rain 1hr
in
rain 24hr
in
rain mn
in
humidity
%
barometer
mb
20260507211833 40 338 0.0 2.0 0.00 0.00 0.00 89
20260507210312 40 331 0.0 2.0 0.00 0.00 0.00 89
20260507204817 40 331 0.0 2.0 0.00 0.00 0.00 89
20260507203338 40 331 1.0 1.0 0.00 0.00 0.00 88
20260507201843 40 331 0.0 0.0 0.00 0.00 0.00 88
20260507200320 40 331 0.0 0.0 0.00 0.00 0.00 88
20260507194819 41 331 0.0 1.0 0.00 0.00 0.00 87
20260507193321 41 331 0.0 2.0 0.00 0.00 0.00 87
20260507191818 41 331 0.0 2.0 0.00 0.00 0.00 87
20260507190336 41 331 0.0 0.0 0.00 0.00 0.00 87
20260507184817 41 331 0.0 0.0 0.00 0.00 0.00 87
20260507183313 41 331 0.0 0.0 0.00 0.00 0.00 87
20260507181837 41 331 0.0 2.0 0.00 0.00 0.00 87
20260507180314 41 333 0.0 2.0 0.00 0.00 0.00 86
20260507174830 42 314 0.0 0.0 0.00 0.00 0.00 86
20260507173331 42 314 0.0 1.0 0.00 0.00 0.00 85
20260507171827 42 298 0.0 2.0 0.00 0.00 0.00 84
20260507170325 42 320 0.0 0.0 0.00 0.00 0.00 85
20260507164828 42 336 0.0 0.0 0.00 0.00 0.00 83
20260507163324 43 319 0.0 0.0 0.00 0.00 0.00 82
20260507161847 43 319 0.0 0.0 0.00 0.00 0.00 80
20260507160323 43 319 0.0 0.0 0.00 0.00 0.00 82
20260507154820 44 319 0.0 0.0 0.00 0.00 0.00 83
20260507153321 44 279 0.0 0.0 0.00 0.00 0.00 82
20260507151819 44 175 0.0 2.0 0.00 0.00 0.00 83
20260507150342 44 151 1.0 3.0 0.00 0.00 0.00 86
20260507144837 45 165 0.0 2.0 0.00 0.00 0.00 87
20260507143313 45 330 0.0 0.0 0.00 0.00 0.00 86
20260507141813 45 330 0.0 0.0 0.00 0.00 0.00 86
20260507140312 45 330 0.0 0.0 0.00 0.00 0.00 86
20260507134828 46 330 0.0 2.0 0.00 0.00 0.00 86
20260507133328 46 330 0.0 1.0 0.00 0.00 0.00 86
20260507131825 47 330 0.0 1.0 0.00 0.00 0.00 86
20260507130346 47 330 1.0 2.0 0.00 0.00 0.00 85
20260507124822 48 330 0.0 0.0 0.00 0.00 0.00 84
20260507123319 48 330 0.0 2.0 0.00 0.00 0.00 84
20260507121840 49 330 0.0 2.0 0.00 0.00 0.00 84
20260507120316 50 330 1.0 2.0 0.00 0.00 0.00 81
20260507114812 51 325 0.0 2.0 0.00 0.00 0.00 76
20260507113313 52 5 0.0 0.0 0.00 0.00 0.00 73
20260507111811 54 151 0.0 1.0 0.00 0.00 0.00 74
20260507110311 54 143 0.0 3.0 0.00 0.00 0.00 75
20260507104852 55 40 1.0 2.0 0.00 0.00 0.00 74
20260507103324 56 315 0.0 6.0 0.00 0.00 0.00 72
20260507101826 56 311 1.0 5.0 0.00 0.00 0.00 70
20260507100345 55 183 1.0 3.0 0.00 0.00 0.00 82
20260507094822 55 300 0.0 2.0 0.00 0.00 0.00 81
20260507093344 55 350 1.0 2.0 0.00 0.00 0.00 82
20260507091818 56 341 0.0 4.0 0.00 0.00 0.00 81
20260507090320 54 345 2.0 5.0 0.00 0.00 0.00 86
20260507084816 54 321 1.0 2.0 0.00 0.00 0.00 88
20260507083313 55 321 1.0 2.0 0.00 0.00 0.00 88
20260507081835 55 290 0.0 0.0 0.00 0.00 0.00 87
20260507080334 56 290 0.0 1.0 0.00 0.00 0.00 87
20260507074813 56 146 0.0 2.0 0.00 0.00 0.00 87
20260507073311 56 324 0.0 2.0 0.00 0.00 0.00 86
20260507071828 57 329 0.0 2.0 0.00 0.00 0.00 84
20260507070330 58 327 1.0 1.0 0.00 0.00 0.00 82
20260507064827 59 321 1.0 2.0 0.00 0.00 0.00 80
20260507063322 61 321 1.0 2.0 0.00 0.00 0.00 76
20260507061824 64 330 1.0 3.0 0.00 0.00 0.00 73
20260507060322 66 325 0.0 3.0 0.00 0.00 0.00 72
20260507054824 68 226 0.0 2.0 0.00 0.00 0.00 75
20260507053321 68 226 0.0 2.0 0.00 0.00 0.00 73
20260507051840 68 226 0.0 2.0 0.00 0.00 0.00 67
20260507050342 68 153 1.0 2.0 0.00 0.00 0.00 68
20260507044818 69 161 1.0 2.0 0.00 0.00 0.00 69
20260507043315 69 96 0.0 0.0 0.00 0.00 0.00 73
20260507041816 68 96 0.0 0.0 0.00 0.00 0.00 75
20260507040315 68 92 0.0 0.0 0.00 0.00 0.00 72
20260507034815 67 338 0.0 0.0 0.00 0.00 0.00 77
20260507033313 67 338 0.0 0.0 0.00 0.00 0.00 78
20260507031811 66 346 1.0 3.0 0.00 0.00 0.00 74
20260507030313 67 332 1.0 2.0 0.00 0.00 0.00 80
20260507024811 68 332 0.0 1.0 0.00 0.00 0.00 77
20260507023327 70 332 1.0 3.0 0.00 0.00 0.00 74
20260507021827 69 308 1.0 2.0 0.00 0.00 0.00 69
20260507020324 69 308 0.0 2.0 0.00 0.00 0.00 69
20260507014824 70 5 1.0 10.0 0.00 0.00 0.00 50
20260507013321 70 340 0.0 4.0 0.00 0.00 0.00 54
20260507011820 69 5 1.0 3.0 0.00 0.00 0.00 55
20260507010321 69 34 1.0 2.0 0.00 0.00 0.00 57
20260507004819 68 262 1.0 2.0 0.00 0.00 0.00 66
20260507003320 68 173 1.0 3.0 0.00 0.00 0.00 59
20260507001838 68 130 0.0 3.0 0.00 0.00 0.00 73
20260507000314 67 137 1.0 2.0 0.00 0.00 0.00 74
20260506234816 66 216 0.0 4.0 0.00 0.04 0.00 71
20260506233313 65 140 0.0 2.0 0.00 0.04 0.00 75
20260506231831 64 46 0.0 2.0 0.00 0.04 0.00 78
20260506230330 63 152 1.0 2.0 0.00 0.04 0.00 85 798.8
20260506224825 62 139 0.0 2.0 0.00 0.04 0.00 91
20260506223326 61 157 0.0 2.0 0.00 0.04 0.00 91 943.1
20260506221824 61 151 0.0 1.0 0.00 0.04 0.00 91
20260506220322 60 151 1.0 3.0 0.00 0.04 0.00 91
20260506214822 60 151 1.0 3.0 0.00 0.04 0.00 91 721.5